This is the latest recevied weather packets stored in our database for station/object NA9VY-8. If no packets are shown the sender has not sent any weather packets the latest 1 day(s).
| Time | Temp. | Humidity | Pressure | Rain* | Wind** | Luminosity | Snow |
|---|---|---|---|---|---|---|---|
| 1778107308 | 14.44° C | 57% | 1016.5 hPa | 0 mm | - | 114 W/m² | - |
| 1778104881 | 15.56° C | 54% | 1016.5 hPa | 0 mm | - | 223 W/m² | - |
| 1778103668 | 16.11° C | 52% | 1016.5 hPa | 0 mm | - | 252 W/m² | - |
| 1778103366 | 16.67° C | 57% | 1016.8 hPa | 0 mm | - | 349 W/m² | - |
| 1778102760 | 15.56° C | 53% | 1016.8 hPa | 0 mm | - | 177 W/m² | - |
| 1778100938 | 15.56° C | 64% | 1016.8 hPa | 0 mm | - | 335 W/m² | - |
| 1778100633 | 15.56° C | 63% | 1016.7 hPa | 0 mm | - | 285 W/m² | - |
| 1778100028 | 15° C | 61% | 1016.7 hPa | 0 mm | - | 289 W/m² | - |
| 1778099120 | 14.44° C | 64% | 1016.8 hPa | 0 mm | - | 236 W/m² | - |
| 1778097301 | 15.56° C | 61% | 1016.9 hPa | 0 mm | - | 303 W/m² | - |
| 1778094875 | 13.89° C | 68% | 1017.4 hPa | 0 mm | - | 323 W/m² | - |
| 1778094268 | 13.89° C | 74% | 1017.3 hPa | 0 mm | - | 297 W/m² | - |
| 1778093056 | 13.89° C | 74% | 1017.3 hPa | 0 mm | - | 177 W/m² | - |
| 1778090631 | 13.89° C | 66% | 1017.1 hPa | 0 mm | - | 350 W/m² | - |
| 1778090328 | 13.33° C | 67% | 1017.3 hPa | 0 mm | - | 306 W/m² | - |
| 1778088813 | 13.33° C | 69% | 1017.5 hPa | 0 mm | - | 243 W/m² | - |
| 1778088207 | 13.33° C | 71% | 1018 hPa | 0 mm | - | 198 W/m² | - |
| 1778087904 | 12.78° C | 70% | 1017.8 hPa | 0 mm | - | 219 W/m² | - |
| 1778087299 | 13.89° C | 68% | 1017.6 hPa | 0 mm | - | 280 W/m² | - |
| 1778086694 | 14.44° C | 68% | 1018 hPa | 0 mm | - | 324 W/m² | - |
| 1778086391 | 14.44° C | 67% | 1017.9 hPa | 0 mm | - | 379 W/m² | - |
| 1778084872 | 12.78° C | 65% | 1018.2 hPa | 0 mm | - | 355 W/m² | - |
| 1778083662 | 12.22° C | 73% | 1017.7 hPa | 0 mm | - | 341 W/m² | - |
| 1778081015 | 11.11° C | 81% | 1017.7 hPa | 0 mm | - | 256 W/m² | - |
| 1778080107 | 11.11° C | 83% | 1018 hPa | 0 mm | - | 361 W/m² | - |
* Rain latest hour (hover to see other rain measurements)
** Current wind speed in m/s (hover to see current wind gust speed)